When you browse on this site, cookies collect data to enhance your experience and personalize the content and advertising you see.
Visit our Privacy Policy to learn more. By continuing to use the site, you agree to this use of cookies and data.
  • In France
  • List of Countries
  • For 7 days
  • Water Temperature
  • Satellite Maps
  • Weather Map
  • Weather Widgets
  • user-avatar
    Login

    Hourly Weather Tirana

    Today, 24 March, Sunday

    Time Temperature Precipitation Wind Pressure Humidity
    00:00 +13°C° 0 mm 3 mps 757 mmHg 52%
    01:00 +13°C° 0 mm 3 mps 757 mmHg 50%
    02:00 +13°C° 0 mm 3 mps 757 mmHg 52%
    03:00 +12°C° 0 mm 3 mps 757 mmHg 54%
    04:00 +12°C° 0 mm 3 mps 757 mmHg 56%
    05:00 +12°C° 0 mm 3 mps 757 mmHg 56%
    06:00 +13°C° 0 mm 3 mps 757 mmHg 57%
    07:00 +13°C° 0 mm 3 mps 757 mmHg 57%
    08:00 +17°C° 0 mm 2 mps 757 mmHg 48%
    09:00 +19°C° 0 mm 2 mps 757 mmHg 40%
    10:00 +23°C° 0 mm 1 mps 757 mmHg 31%
    11:00 +23°C° 0 mm 2 mps 757 mmHg 31%
    12:00 +24°C° 0 mm 3 mps 756 mmHg 30%
    13:00 +23°C° 0 mm 4 mps 756 mmHg 29%
    14:00 +23°C° 0 mm 4 mps 756 mmHg 33%
    15:00 +22°C° 0 mm 5 mps 756 mmHg 36%
    16:00 +21°C° 0 mm 5 mps 755 mmHg 40%
    17:00 +19°C° 0 mm 4 mps 755 mmHg 48%
    18:00 +17°C° 0 mm 4 mps 755 mmHg 55%
    19:00 +14°C° 0 mm 3 mps 755 mmHg 63%
    20:00 +14°C° 0 mm 2 mps 755 mmHg 64%
    21:00 +14°C° 0 mm 1 mps 756 mmHg 64%
    22:00 +13°C° 0 mm 0 mps 756 mmHg 65%
    23:00 +13°C° 0 mm 1 mps 756 mmHg 65%

    Tomorrow, 25 March, Monday

    Time Temperature Precipitation Wind Pressure Humidity
    00:00 +13°C° 0 mm 1 mps 756 mmHg 65%
    01:00 +13°C° 0 mm 1 mps 755 mmHg 65%
    02:00 +12°C° 0 mm 1 mps 755 mmHg 65%
    03:00 +12°C° 0 mm 1 mps 755 mmHg 65%
    04:00 +12°C° 0 mm 1 mps 754 mmHg 65%
    05:00 +13°C° 0 mm 1 mps 754 mmHg 63%
    06:00 +13°C° 0 mm 1 mps 754 mmHg 61%
    07:00 +14°C° 0 mm 2 mps 754 mmHg 59%
    08:00 +16°C° 0 mm 2 mps 754 mmHg 54%
    09:00 +17°C° 0 mm 2 mps 753 mmHg 48%
    10:00 +19°C° 0 mm 2 mps 753 mmHg 43%
    11:00 +19°C° 0 mm 2 mps 753 mmHg 42%
    12:00 +20°C° 0 mm 3 mps 752 mmHg 40%
    13:00 +20°C° 0 mm 3 mps 752 mmHg 39%
    14:00 +20°C° 0 mm 3 mps 751 mmHg 42%
    15:00 +19°C° 0 mm 2 mps 751 mmHg 45%
    16:00 +19°C° 0 mm 2 mps 750 mmHg 48%
    17:00 +17°C° 0 mm 2 mps 750 mmHg 54%
    18:00 +15°C° 0 mm 1 mps 750 mmHg 61%
    19:00 +14°C° 0 mm 1 mps 750 mmHg 68%
    20:00 +13°C° 0 mm 1 mps 750 mmHg 66%
    21:00 +13°C° 0 mm 2 mps 750 mmHg 64%
    22:00 +13°C° 0 mm 2 mps 750 mmHg 63%
    23:00 +12°C° 0 mm 2 mps 750 mmHg 60%

    Day after tomorrow, 26 March, Tuesday

    Time Temperature Precipitation Wind Pressure Humidity
    00:00 +12°C° 0 mm 2 mps 750 mmHg 57%
    01:00 +11°C° 0 mm 3 mps 750 mmHg 55%
    02:00 +11°C° 0 mm 3 mps 750 mmHg 53%
    03:00 +11°C° 0 mm 3 mps 750 mmHg 52%
    04:00 +11°C° 0 mm 3 mps 750 mmHg 50%
    05:00 +12°C° 0.1 mm 2 mps 750 mmHg 51%
    06:00 +13°C° 0.1 mm 2 mps 750 mmHg 52%
    07:00 +14°C° 0.1 mm 2 mps 751 mmHg 53%
    08:00 +15°C° 0 mm 2 mps 751 mmHg 50%
    09:00 +17°C° 0 mm 2 mps 751 mmHg 46%
    10:00 +19°C° 0 mm 2 mps 751 mmHg 42%
    11:00 +19°C° 0 mm 2 mps 751 mmHg 41%
    12:00 +20°C° 0 mm 3 mps 751 mmHg 41%
    13:00 +21°C° 0 mm 4 mps 751 mmHg 40%
    14:00 +20°C° 0 mm 4 mps 751 mmHg 41%
    15:00 +20°C° 0 mm 4 mps 752 mmHg 41%
    16:00 +20°C° 0 mm 4 mps 752 mmHg 42%
    17:00 +18°C° 0 mm 4 mps 752 mmHg 47%
    18:00 +15°C° 0 mm 4 mps 753 mmHg 52%
    19:00 +14°C° 0 mm 4 mps 754 mmHg 57%
    20:00 +13°C° 0 mm 4 mps 754 mmHg 57%
    21:00 +13°C° 0 mm 4 mps 755 mmHg 57%
    22:00 +12°C° 0 mm 4 mps 755 mmHg 57%
    23:00 +12°C° 0 mm 4 mps 755 mmHg 57%

    27 March, Wednesday

    Time Temperature Precipitation Wind Pressure Humidity
    00:00 +10°C° 0 mm 5 mps 756 mmHg 56%
    01:00 +10°C° 0 mm 5 mps 756 mmHg 55%
    02:00 +9°C° 0 mm 5 mps 756 mmHg 55%
    03:00 +10°C° 0 mm 4 mps 756 mmHg 55%
    04:00 +8°C° 0 mm 4 mps 756 mmHg 55%
    05:00 +10°C° 0 mm 4 mps 756 mmHg 53%
    06:00 +10°C° 0 mm 4 mps 756 mmHg 51%
    07:00 +11°C° 0 mm 4 mps 756 mmHg 49%
    08:00 +13°C° 0 mm 4 mps 756 mmHg 43%
    09:00 +16°C° 0 mm 3 mps 756 mmHg 38%
    10:00 +18°C° 0 mm 2 mps 757 mmHg 32%
    11:00 +19°C° 0.1 mm 2 mps 756 mmHg 32%
    12:00 +19°C° 0.1 mm 2 mps 756 mmHg 33%
    13:00 +19°C° 0.1 mm 2 mps 756 mmHg 34%
    14:00 +19°C° 0 mm 3 mps 756 mmHg 36%
    15:00 +18°C° 0 mm 3 mps 756 mmHg 38%
    16:00 +18°C° 0 mm 3 mps 756 mmHg 41%
    17:00 +17°C° 0.1 mm 3 mps 756 mmHg 47%
    18:00 +15°C° 0.1 mm 2 mps 756 mmHg 53%
    19:00 +14°C° 0.1 mm 2 mps 756 mmHg 59%
    20:00 +14°C° 0.1 mm 2 mps 757 mmHg 62%
    21:00 +14°C° 0.1 mm 2 mps 757 mmHg 64%
    22:00 +13°C° 0.1 mm 1 mps 757 mmHg 66%
    23:00 +13°C° 0.2 mm 2 mps 757 mmHg 66%

    28 March, Thursday

    Time Temperature Precipitation Wind Pressure Humidity
    00:00 +12°C° 0.2 mm 3 mps 757 mmHg 66%
    01:00 +11°C° 0.2 mm 3 mps 757 mmHg 67%
    02:00 +11°C° 0 mm 4 mps 757 mmHg 66%
    03:00 +10°C° 0 mm 4 mps 757 mmHg 66%
    04:00 +10°C° 0 mm 4 mps 757 mmHg 66%
    05:00 +10°C° 0 mm 4 mps 757 mmHg 65%
    06:00 +11°C° 0 mm 4 mps 757 mmHg 63%
    07:00 +11°C° 0 mm 4 mps 757 mmHg 62%
    08:00 +13°C° 0 mm 4 mps 757 mmHg 55%
    09:00 +15°C° 0 mm 4 mps 758 mmHg 49%
    10:00 +17°C° 0 mm 4 mps 758 mmHg 43%
    11:00 +18°C° 0 mm 4 mps 758 mmHg 40%
    12:00 +18°C° 0 mm 4 mps 758 mmHg 38%
    13:00 +19°C° 0 mm 4 mps 757 mmHg 36%
    14:00 +19°C° 0 mm 4 mps 757 mmHg 36%
    15:00 +18°C° 0 mm 4 mps 757 mmHg 36%
    16:00 +18°C° 0 mm 4 mps 757 mmHg 36%
    17:00 +15°C° 0 mm 4 mps 757 mmHg 40%
    18:00 +14°C° 0 mm 4 mps 758 mmHg 43%
    19:00 +12°C° 0 mm 4 mps 758 mmHg 47%
    20:00 +11°C° 0 mm 4 mps 758 mmHg 49%
    21:00 +11°C° 0 mm 4 mps 758 mmHg 52%
    22:00 +10°C° 0 mm 4 mps 759 mmHg 54%
    23:00 +10°C° 0 mm 4 mps 759 mmHg 56%

    29 March, Friday

    Time Temperature Precipitation Wind Pressure Humidity
    00:00 +8°C° 0 mm 4 mps 759 mmHg 58%
    01:00 +8°C° 0 mm 4 mps 759 mmHg 60%
    02:00 +8°C° 0 mm 4 mps 759 mmHg 61%
    03:00 +7°C° 0 mm 4 mps 759 mmHg 62%
    04:00 +7°C° 0 mm 4 mps 759 mmHg 64%
    05:00 +8°C° 0 mm 4 mps 759 mmHg 62%
    06:00 +8°C° 0 mm 4 mps 759 mmHg 60%
    07:00 +9°C° 0 mm 5 mps 759 mmHg 59%
    08:00 +12°C° 0 mm 5 mps 759 mmHg 50%
    09:00 +13°C° 0 mm 5 mps 759 mmHg 42%
    10:00 +15°C° 0 mm 5 mps 759 mmHg 33%
    11:00 +16°C° 0 mm 5 mps 758 mmHg 30%
    12:00 +17°C° 0 mm 5 mps 758 mmHg 27%
    13:00 +17°C° 0 mm 5 mps 758 mmHg 24%
    14:00 +17°C° 0 mm 5 mps 757 mmHg 25%
    15:00 +17°C° 0 mm 6 mps 757 mmHg 26%
    16:00 +17°C° 0 mm 6 mps 757 mmHg 27%
    17:00 +15°C° 0 mm 6 mps 757 mmHg 31%
    18:00 +13°C° 0 mm 6 mps 757 mmHg 34%
    19:00 +10°C° 0 mm 6 mps 758 mmHg 38%
    20:00 +10°C° 0 mm 6 mps 758 mmHg 40%
    21:00 +9°C° 0 mm 6 mps 758 mmHg 42%
    22:00 +8°C° 0 mm 5 mps 759 mmHg 44%
    23:00 +8°C° 0 mm 5 mps 759 mmHg 45%
    Show more